Location: Kellogg
(38.0159°N, 90.0546°W)
Time: 18:36:34
(UTC+00:00)

Hubble Space Telescope - Pass Details

Date: 24 January 2026
Orbit: 478 x 480 km, 28.5° (Epoch: 8 February)

Event Time Altitude Azimuth Distance (km) Brightness Sun altitude
Rises 01:11:41 0° 229° (SW) 2,512 5.1 -23.2°
Reaches altitude 10° 01:14:35 10° 206° (SSW) 1,636 3.6 -23.8°
Enters shadow 01:15:59 14° 184° (S) 1,392 3.0 -24.0°
